Weather Service Report


547 
ASUS41 KRLX 301810
RWRRLX
West Virginia Regional Weather Roundup
National Weather Service Charleston WV
200 PM EDT THU JUN 30 2016

Note: "fair" indicates few or no clouds below 12,000 feet with no
significant weather and/or obstructions to visibility.

WVZ003-301900-
Northern Panhandle of West Virginia
  
CITY           SKY/WX    TMP DP  RH WIND       PRES   REMARKS
WHEELING         N/A     77  50  38 W8        30.05F                  
$$

WVZ009-301900-
Northwest West Virginia
  
CITY           SKY/WX    TMP DP  RH WIND       PRES   REMARKS
PARKERSBURG      N/A     78  52  40 CALM      30.07F                  
$$

WVZ006-301900-
Western West Virginia
  
CITY           SKY/WX    TMP DP  RH WIND       PRES   REMARKS
HUNTINGTON       N/A     80  54  40 NE5       30.03F                  
$$

WVZ015-301900-
West Central West Virginia
  
CITY           SKY/WX    TMP DP  RH WIND       PRES   REMARKS
CHARLESTON       N/A     80  57  45 N6        30.03F                  
$$

WVZ022-031-301900-
North Central West Virginia
  
CITY           SKY/WX    TMP DP  RH WIND       PRES   REMARKS
CLARKSBURG       N/A     78  52  40 VRB3      30.05F                  
MORGANTOWN       N/A     77  53  43 VRB6      30.06F                  
$$

WVZ025-035-042-045-301900-
Southern West Virginia
  
CITY           SKY/WX    TMP DP  RH WIND       PRES   REMARKS
BECKLEY        PTSUNNY   74  58  57 SE6       30.08F                  
LOGAN          NOT AVBL                                               
BLUEFIELD      PTSUNNY   74  60  61 NE5       30.09F                  
LEWISBURG      CLOUDY    71  59  65 SE5       30.10F                  
$$

WVZ047-301900-
Northern Mountains of West Virginia
  
CITY           SKY/WX    TMP DP  RH WIND       PRES   REMARKS
ELKINS           N/A     76  55  48 VRB5      30.08F                  
$$

WVZ052-301900-
Eastern Panhandle of West Virginia
  
CITY           SKY/WX    TMP DP  RH WIND       PRES   REMARKS
MARTINSBURG      N/A     79  56  45 CALM      30.06F                  
PETERSBURG       N/A     79  59  49 E3        30.06F                  
$$
  

Return to Home page


Western Regional Climate Center, wrcc@dri.edu